Regional Weather Roundup
Issued by NWS Wakefield, VA

Home | Current Version | Previous Version | Graphics & Text | Print | Product List | Glossary On
Versions: 1 2 3 4 5 6 7 8 9 10 11 12 13 14 15 16 17 18 19 20 21 22 23 24 25 26 27 28 29 30 31 32 33 34 35 36 37 38 39 40 41 42 43 44 45 46 47 48 49 50
000
ASUS41 KAKQ 240815
RWRAKQ

REGIONAL WEATHER ROUNDUP
NATIONAL WEATHER SERVICE WAKEFIELD VA
300 AM EST TUE JAN 24 2017

Note: "fair" indicates few or no clouds below 12,000 feet with no
significant weather and/or obstructions to visibility. * = Denotes
station may not report precipitation (e.g., rain,snow,etc.),
thunder or fog.

VAZ042-051-052>054-056-240900-
NORTHERN VIRGINIA

CITY           SKY/WX    TMP DP  RH WIND       PRES   REMARKS
WASH NATIONAL  CLOUDY    39  37  92 NW14      29.47S
DULLES         DRIZZLE   36  34  92 NW12      29.48S
FORT BELVOIR   LGT RAIN  37  36  93 NW9G17    29.47S
QUANTICO       CLOUDY    38  37  97 N14G28    29.49R
FREDERICKSBRG* CLOUDY    38  38 100 NW9G20    29.47S
STAFFORD*      RAIN      36  36 100 NW15      29.51F
WARRENTON      LGT RAIN  38  33  84 NW10G17   29.49S
CULPEPER*      CLOUDY    37  35  91 NW10G16   29.50S
MANASSAS*      NOT AVBL
LEESBURG*      DRIZZLE   37  37 100 NW15      29.50S
WINCHESTER     LGT RAIN  32  32 100 NW13      29.52S WCI  22
FRONT ROYAL*   CLOUDY    34  34 100 NW3       29.53R
LURAY*         CLOUDY    34  34 100 CALM      29.52S
$$

VAZ048-049-060>072-079>083-240900-
CENTRAL AND SOUTH CENTRAL VIRGINIA

CITY           SKY/WX    TMP DP  RH WIND       PRES   REMARKS
RICHMOND       CLOUDY    38  36  92 N15G26    29.45R
CHESTERFIELD*  CLOUDY    39  21  48 N13G21    29.47R
PETERSBURG*    CLOUDY    37  36  93 NW10G16   29.46
HANOVER        CLOUDY    38  34  85 VRB6      29.47R
TAPPAHANNOCK*  CLOUDY    40  39  99 N10G17    29.43S
QUINTON*       CLOUDY    39  38  97 NW8G23    29.44R
CHARLOTTSVILLE CLOUDY    40  33  76 VRB7      29.49R
GORDONSVILLE*  CLOUDY    38  35  86 N5        29.48R
ORANGE*          N/A     37  36  93 NW7       29.51R
LOUISA*        CLOUDY    41  37  87 NW10      29.47R
BUMPASS*       CLOUDY    37  36  99 N10       29.47R
FARMVILLE*     CLOUDY    40  37  90 CALM      29.49R
CREWE*         CLOUDY    38  38 100 NW9       29.49R
FORT PICKETT*  CLOUDY    37  34  88 NW9       29.48R
CHASE CITY*    CLOUDY    40  38  94 NW6       29.50R
CLARKSVILLE*   CLOUDY    41  36  81 NW6       29.51R
SOUTH HILL*    CLOUDY    38  36  93 NW7       29.54R
LAWRENCEVILLE* CLOUDY    38  37  95 NW6       29.47R
EMPORIA*       LGT RAIN  37  37 100 W6        29.48R
$$

VAZ088>098-240900-
SOUTHEAST VIRGINIA

CITY           SKY/WX    TMP DP  RH WIND       PRES   REMARKS
NORFOLK        CLOUDY    42  38  85 NW14G22   29.38R
VIRGINIA BEACH LGT RAIN  41  38  89 NW22G28   29.35R FOG
NORFOLK NAVAL  LGT RAIN  42  38  85 NW18G26   29.40R
WEST POINT*    CLOUDY    39  37  93 NW9G16    29.43R
SALUDA*        CLOUDY    39  38  97 NW13G22   29.40R
NEWPORT NEWS   LGT RAIN  40  38  93 N17G24    29.40R
LANGLEY AFB    CLOUDY    41  40  96 N13G22    29.39R
FORT EUSTIS    MIX PCPN  41  37  87 N12G22    29.38R
WILLIAMSBURG*  CLOUDY    41  41 100 N12       29.42R
HR EXEC AP*    CLOUDY    41  37  87 NW8       29.39R
FRANKLIN*      CLOUDY    40  37  90 NW9G16    29.44R FOG
US460-WAKEFLD  CLOUDY    40  38  93 N7        29.43R FOG
$$

VAZ020-022-025-037-045-240900-
WEST CENTRAL AND SOUTHWEST VIRGINIA

CITY           SKY/WX    TMP DP  RH WIND       PRES   REMARKS
STAUNTON*      CLOUDY    34  31  90 N5        29.53R
WAYNESBORO*    CLOUDY    33  32  96 NW6       29.50S
HOT SPRINGS VA FOG       30  30 100 W14       29.42S VSB 1/4 WCI  20
LYNCHBURG      MOCLDY    37  32  82 NW3       29.51R
DANVILLE       CLOUDY    40  37  89 W5        29.52R
SOUTH BOSTON*  CLOUDY    41  37  87 NW5       29.51S
MARTINSVILLE   CLOUDY    39  38  95 CALM      29.54R
ROANOKE        CLOUDY    39  36  89 N8        29.52S
BLACKSBURG     DRIZZLE   40  38  91 W7G17     29.55R
DUBLIN*        DRIZZLE   43  38  82 W15G25    29.53S
MARION*        DRIZZLE   43  40  89 W22G36    29.57R
HILLSVILLE*    CLOUDY    42  37  85 NW16G25   29.50R
RICHLANDS*     RAIN      40  40 100 NW9G16    29.60R
WISE*          CLOUDY    41  41 100 NW12G18   29.65R
ABINGDON*      CLOUDY    46  42  87 NW9G18    29.63R
$$

MDZ021>025-VAZ099-100-240900-
SOUTHERN MARYLAND AND THE DELMARVA PENINSULA

CITY           SKY/WX    TMP DP  RH WIND       PRES   REMARKS
PATUXENT RIVER CLOUDY    39  37  92 N18       29.41R
BAY BRIDGE APT DRIZZLE   37  37 100 N16       29.44R FOG
LEONARDTOWN    CLOUDY    37  36  93 NW6       29.43S
DOVER          CLOUDY    39  39 100 NW16      29.36R
GEORGETOWN     CLOUDY    41  37  86 N12G21    29.35R
EASTON         CLOUDY    40  37  91 N12       29.44R FOG
CAMBRIDGE      CLOUDY    37  36  93 N13       29.39S
SALISBURY      LGT RAIN  40  39  97 N14       29.34R FOG
OCEAN CITY     CLOUDY    41  40  96 NW14      29.31R FOG
WALLOPS ISLAND LGT RAIN  41  41 100 NW12G22   29.33R FOG
ACCOMACK*      DRIZZLE   41  40  95 NW15G28   29.33S
$$

NCZ012>017-030>032-240900-
NORTH CENTRAL AND EASTERN NORTH CAROLINA

CITY           SKY/WX    TMP DP  RH WIND       PRES   REMARKS
ROANOKE RAPIDS NOT AVBL
RALEIGH        CLOUDY    43  37  79 VRB5      29.51S
ELIZABETH CITY CLOUDY    42  41  96 NW17G24   29.39R
AHOSKIE*       DRIZZLE   39  38  97 NW7       29.46R
EDENTON*       CLOUDY    45  41  86 NW12G18   29.42R
CURRITUCK*     CLOUDY    43  43  99 NW8       29.38R
KILL DEVIL HLS NOT AVBL
MANTEO         CLOUDY    45  44  95 NW14G22   29.36R
CAPE HATTERAS  CLOUDY    49  45  86 NW14G22   29.37R
TARBORO*       NOT AVBL
GOLDSBORO      CLOUDY    44  42  91 NW10      29.47R
WASHINGTON     CLOUDY    42  39  90 NW9         N/A
GREENVILLE     CLOUDY    43  39  87 NW10G20   29.51R
NEW BERN       CLOUDY    46  40  79 NW12G24   29.46R
WILMINGTON     CLOUDY    48  45  89 NW14G21   29.48R
$$

VAZ048-240900-
ELSEWHERE

CITY           SKY/WX    TMP DP  RH WIND       PRES   REMARKS
HARRISBURG PA  LGT SNOW  36  35  96 NW10      29.50R FOG
BALTIMORE      LGT RAIN  37  37 100 NW8       29.45R
ANNAPOLIS      CLOUDY    40  37  89 NW12      29.43R FOG
ANDREWS AFB    CLOUDY    37  35  94 NW12      29.44S
PHILADELPHIA   LGT RAIN  38  36  92 N17       29.40S FOG
HENDERSON NC   CLOUDY    38  33  83 NW3       29.51R
GREENSBORO     LGT RAIN  41  41 100 NW6       29.51R
ROCKY MOUNT    CLOUDY    41  39  93 W8        29.50R
$$

VAZ100-240900-
MARINE

STATION/POSITION TIME  TEMP    WIND        PRES    WAVE   SWELL
                       AIR SEA DIR/SP/G            HT/PER HT/PER
                 (UTC) (F)     (DEG/KT/KT) (MB)    (FT/S) (FT/S)
CAPE MAY NJ      0748   40 44  350/  6/ 14  992.1R
LEWES DE         0742   40 42  360/ 21/ 25  992.9F
OCEAN-CITY-INLET 0742   42 44  360/ 16/ 23  992.1R
WACHAPREAGUE VA  0748   41 49  320/  7/ 15  993.0R
THOMAS POINT MD  0800   38 40  330/ 15/ 16   N/A
GOOSES REEF MD   0750   39     330/ 17/ 21  997.3R
COVE POINT MD    0748   38     360/ 25/ 28  996.3R
SOLOMONS ISLAND  0742   39 42  330/ 12/ 16   N/A
BISHOPS HEAD MD  0748   40 44  340/ 12/ 19  995.0R
PINEY POINT MD   0748          350/ 18/ 20   N/A
POTOMAC MD       0750   39     350/ 17/ 23  994.4R
CAMBRIDGE MD     0748   40 42  330/ 14/ 17  994.6R
LEWISETTA VA     0748   40 44  360/ 12/ 17  995.5R
RAPPAHANNOCK LGT 0748          330/ 32/ 37  994.2R
STINGRAY PT      0750   39     350/ 17/ 21  995.3R
YORK RVR RNG VA  0748   41     350/ 21/ 25  994.2R
YORKTOWN VA      0748   41 45  330/ 16/ 20  995.0R
JAMESTOWN VA     0750   40     310/ 16/ 19   N/A
DOMINION TERM VA 0748   41     330/ 15/ 19  995.2R
CHES BAY BRIDGE  0742   42 45  330/ 23/ 27  994.4R
CAPE HENRY VA    0742   42     330/ 23/ 27   N/A
WILLOUBY STN VA  0742   41     330/ 17/ 21  995.8R
S CRANEY ISL VA  0748   42     320/ 10/ 16  994.8R
CAPE HENRY BUOY  0742      47                N/A     9/11   5/11
OFFSHORE WE BUOY 0721      47                N/A    10/13   5/13
64NM E OF VA BCH 0750   49 52  320/ 25/ 35  989.4R  11/12  10/12
DUCK PIER NC     0742   45 46  320/ 20/ 24  992.9R
44100 DUCK FRF   0735      50                N/A    10/13   7/13
44056 DUCK FRF   0730      47                N/A     8/13   5/13
OREGON INLET NC  0742   46 50  310/ 17/ 21  993.4R
HATTERAS NC      0742   49 57  310/ 20/ 23  994.0R
DIAMOND SHLS NC  0650   53 75  310/ 25/ 31  992.6    9/11   7/11
CAPE LOOKOUT NC  0700   50     310/ 20/ 23  994.9R
$$



USA.gov is the U.S. government's official web portal to all federal, state and local government web resources and services.